| time (UTC) | temp C | wind direction | speed KPH | gust KPH | rain 1hr cm | rain 24hr cm | rain mn cm | humidity % | barometer mb |
| 20260505124955 | 5 | 288 | 6.4 | 11.3 | 0.00 | 0.00 | 0.00 | 51 | 1009.5 |
| 20260505124452 | 5 | 232 | 4.8 | 11.3 | 0.00 | 0.00 | 0.00 | 51 | 1009.2 |
| 20260505123948 | 5 | 255 | 1.6 | 3.2 | 0.00 | 0.00 | 0.00 | 51 | 1009.3 |
| 20260505123445 | 5 | 278 | 0.0 | 4.8 | 0.00 | 0.00 | 0.00 | 52 | 1009.1 |
| 20260505122940 | 5 | 236 | 3.2 | 4.8 | 0.00 | 0.00 | 0.00 | 53 | 1009.1 |
| 20260505122438 | 5 | 280 | 4.8 | 4.8 | 0.00 | 0.00 | 0.00 | 53 | 1008.9 |
| 20260505121935 | 5 | 284 | 1.6 | 4.8 | 0.00 | 0.00 | 0.00 | 55 | 1008.9 |
| 20260505121432 | 5 | 264 | 1.6 | 3.2 | 0.00 | 0.00 | 0.00 | 56 | 1008.8 |
| 20260505120927 | 5 | 241 | 3.2 | 4.8 | 0.00 | 0.00 | 0.00 | 55 | 1008.9 |
| 20260505120424 | 4 | 253 | 1.6 | 4.8 | 0.00 | 0.00 | 0.00 | 55 | 1008.7 |
| 20260505115923 | 4 | 283 | 1.6 | 4.8 | 0.00 | 0.00 | 0.00 | 55 | 1008.6 |
| 20260505115420 | 4 | 231 | 3.2 | 3.2 | 0.00 | 0.00 | 0.00 | 55 | 1008.4 |
| 20260505114918 | 4 | 260 | 1.6 | 8.0 | 0.00 | 0.00 | 0.00 | 55 | 1008.3 |
| 20260505114414 | 4 | 271 | 1.6 | 4.8 | 0.00 | 0.00 | 0.00 | 55 | 1008.2 |
| 20260505113910 | 4 | 276 | 0.0 | 4.8 | 0.00 | 0.00 | 0.00 | 56 | 1008.3 |
| 20260505113407 | 4 | 258 | 1.6 | 4.8 | 0.00 | 0.00 | 0.00 | 56 | 1008.1 |
| 20260505112903 | 4 | 276 | 1.6 | 4.8 | 0.00 | 0.00 | 0.00 | 56 | 1008.0 |
| 20260505112401 | 4 | 231 | 4.8 | 8.0 | 0.00 | 0.00 | 0.00 | 57 | 1008.0 |
| 20260505111856 | 3 | 304 | 3.2 | 3.2 | 0.00 | 0.00 | 0.00 | 58 | 1007.8 |
| 20260505111351 | 3 | 288 | 1.6 | 4.8 | 0.00 | 0.00 | 0.00 | 58 | 1007.6 |
| 20260505110848 | 3 | 265 | 3.2 | 4.8 | 0.00 | 0.00 | 0.00 | 60 | 1007.5 |
| 20260505110345 | 3 | 276 | 1.6 | 3.2 | 0.00 | 0.00 | 0.00 | 61 | 1007.7 |
| 20260505101815 | 4 | 315 | 4.8 | 4.8 | 0.00 | 0.00 | 0.00 | 59 | 1007.3 |
| 20260505101310 | 4 | 292 | 1.6 | 8.0 | 0.00 | 0.00 | 0.00 | 59 | 1007.4 |
| 20260505100807 | 4 | 284 | 4.8 | 4.8 | 0.00 | 0.00 | 0.00 | 58 | 1007.3 |
| 20260505100303 | 5 | 298 | 3.2 | 9.7 | 0.00 | 0.00 | 0.00 | 58 | 1007.4 |
| 20260505095759 | 5 | 284 | 1.6 | 8.0 | 0.00 | 0.00 | 0.00 | 58 | 1007.6 |
| 20260505095257 | 5 | 282 | 3.2 | 8.0 | 0.00 | 0.00 | 0.00 | 57 | 1007.3 |
| 20260505094752 | 5 | 278 | 6.4 | 8.0 | 0.00 | 0.00 | 0.00 | 57 | 1007.3 |
| 20260505094249 | 5 | 273 | 4.8 | 9.7 | 0.00 | 0.00 | 0.00 | 57 | 1007.1 |
| 20260505093745 | 5 | 243 | 1.6 | 4.8 | 0.00 | 0.00 | 0.00 | 58 | 1007.4 |
| 20260505093243 | 5 | 287 | 4.8 | 4.8 | 0.00 | 0.00 | 0.00 | 58 | 1007.2 |
| 20260505092740 | 5 | 256 | 0.0 | 1.6 | 0.00 | 0.00 | 0.00 | 58 | 1007.1 |
| 20260505092238 | 5 | 278 | 1.6 | 1.6 | 0.00 | 0.00 | 0.00 | 57 | 1007.0 |
| 20260505091735 | 5 | 232 | 1.6 | 1.6 | 0.00 | 0.00 | 0.00 | 56 | 1007.0 |
| 20260505091233 | 5 | 289 | 1.6 | 4.8 | 0.00 | 0.00 | 0.00 | 55 | 1006.9 |
| 20260505090730 | 5 | 278 | 1.6 | 4.8 | 0.00 | 0.00 | 0.00 | 55 | 1006.8 |
| 20260505090229 | 5 | 264 | 3.2 | 4.8 | 0.00 | 0.00 | 0.00 | 54 | 1006.9 |
| 20260505085726 | 5 | 226 | 3.2 | 3.2 | 0.00 | 0.00 | 0.00 | 53 | 1006.7 |
| 20260505085224 | 5 | 264 | 3.2 | 16.1 | 0.00 | 0.00 | 0.00 | 53 | 1006.7 |
| 20260505084721 | 5 | 296 | 3.2 | 8.0 | 0.00 | 0.00 | 0.00 | 53 | 1006.8 |
| 20260505084220 | 5 | 317 | 4.8 | 4.8 | 0.00 | 0.00 | 0.00 | 54 | 1006.5 |
| 20260505083716 | 5 | 313 | 4.8 | 9.7 | 0.00 | 0.00 | 0.00 | 53 | 1006.4 |
| 20260505083213 | 5 | 273 | 3.2 | 8.0 | 0.00 | 0.00 | 0.00 | 53 | 1006.4 |
| 20260505082709 | 5 | 238 | 1.6 | 4.8 | 0.00 | 0.00 | 0.00 | 53 | 1006.2 |
| 20260505082206 | 5 | 280 | 3.2 | 4.8 | 0.00 | 0.00 | 0.00 | 53 | 1006.2 |
| 20260505081702 | 5 | 263 | 1.6 | 8.0 | 0.00 | 0.00 | 0.00 | 53 | 1006.1 |
| 20260505081200 | 5 | 278 | 3.2 | 4.8 | 0.00 | 0.00 | 0.00 | 53 | 1005.9 |
| 20260505080657 | 5 | 288 | 4.8 | 9.7 | 0.00 | 0.00 | 0.00 | 53 | 1006.0 |
| 20260505080152 | 6 | 270 | 4.8 | 8.0 | 0.00 | 0.00 | 0.00 | 53 | 1006.0 |
| 20260505075648 | 6 | 199 | 4.8 | 4.8 | 0.00 | 0.00 | 0.00 | 53 | 1006.1 |
| 20260505075145 | 6 | 271 | 3.2 | 4.8 | 0.00 | 0.00 | 0.00 | 52 | 1006.0 |
| 20260505074642 | 6 | 317 | 4.8 | 8.0 | 0.00 | 0.00 | 0.00 | 52 | 1006.0 |
| 20260505074139 | 6 | 251 | 1.6 | 4.8 | 0.00 | 0.00 | 0.00 | 52 | 1005.8 |
| 20260505073637 | 6 | 270 | 3.2 | 8.0 | 0.00 | 0.00 | 0.00 | 52 | 1005.9 |
| 20260505073135 | 6 | 325 | 3.2 | 8.0 | 0.00 | 0.00 | 0.00 | 52 | 1005.8 |
| 20260505072630 | 6 | 304 | 4.8 | 8.0 | 0.00 | 0.00 | 0.00 | 52 | 1005.8 |
| 20260505072127 | 6 | 278 | 4.8 | 9.7 | 0.00 | 0.00 | 0.00 | 52 | 1005.9 |
| 20260505071623 | 6 | 283 | 1.6 | 3.2 | 0.00 | 0.00 | 0.00 | 52 | 1005.9 |
| 20260505071121 | 6 | 274 | 3.2 | 8.0 | 0.00 | 0.00 | 0.00 | 52 | 1006.0 |
| 20260505070618 | 6 | 268 | 3.2 | 3.2 | 0.00 | 0.00 | 0.00 | 52 | 1005.9 |
| 20260505070114 | 6 | 269 | 3.2 | 3.2 | 0.00 | 0.00 | 0.00 | 52 | 1006.0 |
| 20260505065610 | 6 | 279 | 3.2 | 8.0 | 0.00 | 0.00 | 0.00 | 51 | 1006.0 |
| 20260505065107 | 6 | 249 | 1.6 | 8.0 | 0.00 | 0.00 | 0.00 | 51 | 1006.2 |
| 20260505064604 | 6 | 269 | 4.8 | 11.3 | 0.00 | 0.00 | 0.00 | 51 | 1006.1 |
| 20260505064102 | 6 | 309 | 4.8 | 4.8 | 0.00 | 0.00 | 0.00 | 52 | 1005.9 |
| 20260505063559 | 6 | 296 | 3.2 | 8.0 | 0.00 | 0.00 | 0.00 | 52 | 1006.1 |
| 20260505063055 | 6 | 282 | 3.2 | 4.8 | 0.00 | 0.00 | 0.00 | 53 | 1006.0 |
| 20260505062551 | 6 | 324 | 4.8 | 11.3 | 0.00 | 0.00 | 0.00 | 53 | 1006.1 |
| 20260505062049 | 6 | 278 | 4.8 | 8.0 | 0.00 | 0.00 | 0.00 | 52 | 1006.0 |
| 20260505061546 | 7 | 276 | 3.2 | 4.8 | 0.00 | 0.00 | 0.00 | 53 | 1006.1 |
| 20260505061044 | 7 | 273 | 4.8 | 8.0 | 0.00 | 0.00 | 0.00 | 53 | 1006.0 |
| 20260505060541 | 6 | 262 | 3.2 | 11.3 | 0.00 | 0.00 | 0.00 | 54 | 1005.9 |
| 20260505060038 | 6 | 210 | 3.2 | 8.0 | 0.00 | 0.00 | 0.00 | 55 | 1006.0 |
| 20260505055533 | 6 | 333 | 4.8 | 8.0 | 0.00 | 0.00 | 0.00 | 57 | 1006.0 |
| 20260505055030 | 6 | 230 | 0.0 | 3.2 | 0.00 | 0.00 | 0.00 | 56 | 1006.1 |
| 20260505054527 | 6 | 246 | 1.6 | 3.2 | 0.00 | 0.00 | 0.00 | 54 | 1006.1 |
| 20260505054026 | 6 | 270 | 0.0 | 4.8 | 0.00 | 0.00 | 0.00 | 55 | 1005.9 |
| 20260505053522 | 5 | 233 | 0.0 | 1.6 | 0.00 | 0.00 | 0.00 | 56 | 1006.0 |
| 20260505053019 | 5 | 216 | 0.0 | 1.6 | 0.00 | 0.00 | 0.00 | 56 | 1005.9 |
| 20260505052516 | 6 | 227 | 1.6 | 3.2 | 0.00 | 0.00 | 0.00 | 55 | 1006.0 |
| 20260505052014 | 6 | 231 | 1.6 | 1.6 | 0.00 | 0.00 | 0.00 | 55 | 1005.9 |
| 20260505051510 | 6 | 227 | 1.6 | 3.2 | 0.00 | 0.00 | 0.00 | 54 | 1005.9 |
| 20260505051008 | 6 | 236 | 1.6 | 1.6 | 0.00 | 0.00 | 0.00 | 54 | 1005.9 |
| 20260505050506 | 6 | 239 | 1.6 | 3.2 | 0.00 | 0.00 | 0.00 | 54 | 1005.6 |
| 20260505041434 | 6 | 240 | 1.6 | 3.2 | 0.00 | 0.00 | 0.00 | 50 | 1005.9 |
| 20260505040931 | 7 | 254 | 1.6 | 3.2 | 0.00 | 0.00 | 0.00 | 50 | 1005.6 |
| 20260505040428 | 7 | 219 | 1.6 | 3.2 | 0.00 | 0.00 | 0.00 | 49 | 1005.5 |
| 20260505035925 | 7 | 241 | 1.6 | 3.2 | 0.00 | 0.00 | 0.00 | 49 | 1005.6 |
| 20260505035421 | 7 | 227 | 1.6 | 3.2 | 0.00 | 0.00 | 0.00 | 48 | 1005.5 |
| 20260505034919 | 7 | 232 | 1.6 | 3.2 | 0.00 | 0.00 | 0.00 | 48 | 1005.5 |
| 20260505034415 | 7 | 234 | 1.6 | 3.2 | 0.00 | 0.00 | 0.00 | 47 | 1005.7 |
| 20260505033912 | 7 | 240 | 1.6 | 4.8 | 0.00 | 0.00 | 0.00 | 46 | 1005.7 |
| 20260505033408 | 7 | 257 | 1.6 | 3.2 | 0.00 | 0.00 | 0.00 | 46 | 1005.6 |
| 20260505032907 | 7 | 248 | 3.2 | 4.8 | 0.00 | 0.00 | 0.00 | 45 | 1005.7 |
| 20260505032403 | 8 | 252 | 1.6 | 1.6 | 0.00 | 0.00 | 0.00 | 46 | 1005.7 |
| 20260505031900 | 8 | 247 | 0.0 | 3.2 | 0.00 | 0.00 | 0.00 | 45 | 1005.7 |
| 20260505031357 | 8 | 244 | 1.6 | 1.6 | 0.00 | 0.00 | 0.00 | 45 | 1005.7 |
| 20260505030854 | 8 | 262 | 1.6 | 3.2 | 0.00 | 0.00 | 0.00 | 44 | 1005.4 |
| 20260505030344 | 8 | 255 | 3.2 | 4.8 | 0.00 | 0.00 | 0.00 | 44 | 1005.6 |
| 20260505025840 | 8 | 251 | 1.6 | 4.8 | 0.00 | 0.00 | 0.00 | 43 | 1005.4 |
| 20260505025338 | 8 | 252 | 1.6 | 4.8 | 0.00 | 0.00 | 0.00 | 43 | 1005.4 |
| 20260505024836 | 8 | 287 | 4.8 | 8.0 | 0.00 | 0.00 | 0.00 | 43 | 1005.3 |
| 20260505024334 | 8 | 266 | 0.0 | 4.8 | 0.00 | 0.00 | 0.00 | 43 | 1005.3 |
| 20260505023830 | 8 | 251 | 1.6 | 3.2 | 0.00 | 0.00 | 0.00 | 43 | 1005.1 |
| 20260505023327 | 8 | 244 | 3.2 | 4.8 | 0.00 | 0.00 | 0.00 | 42 | 1005.3 |
| 20260505022825 | 8 | 258 | 3.2 | 9.7 | 0.00 | 0.00 | 0.00 | 41 | 1005.1 |
| 20260505022321 | 8 | 264 | 1.6 | 3.2 | 0.00 | 0.00 | 0.00 | 41 | 1005.1 |
| 20260505021819 | 8 | 292 | 4.8 | 12.9 | 0.00 | 0.00 | 0.00 | 40 | 1005.1 |
| 20260505021315 | 9 | 259 | 1.6 | 9.7 | 0.00 | 0.00 | 0.00 | 41 | 1004.7 |
| 20260505020811 | 9 | 258 | 4.8 | 11.3 | 0.00 | 0.00 | 0.00 | 42 | 1004.7 |
| 20260505020307 | 9 | 289 | 4.8 | 8.0 | 0.00 | 0.00 | 0.00 | 42 | 1004.8 |
| 20260505015804 | 9 | 309 | 11.3 | 12.9 | 0.00 | 0.00 | 0.00 | 42 | 1004.5 |
| 20260505015301 | 9 | 274 | 6.4 | 14.5 | 0.00 | 0.00 | 0.00 | 42 | 1004.5 |
| 20260505014758 | 10 | 310 | 6.4 | 16.1 | 0.00 | 0.00 | 0.00 | 42 | 1004.5 |
| 20260505014255 | 10 | 279 | 3.2 | 12.9 | 0.00 | 0.00 | 0.00 | 42 | 1004.2 |
| 20260505013751 | 10 | 274 | 8.0 | 11.3 | 0.00 | 0.00 | 0.00 | 41 | 1004.1 |
| 20260505013249 | 10 | 278 | 6.4 | 24.1 | 0.00 | 0.00 | 0.00 | 41 | 1004.0 |
| 20260505012747 | 10 | 292 | 9.7 | 11.3 | 0.00 | 0.00 | 0.00 | 41 | 1003.9 |
| 20260505012244 | 10 | 220 | 4.8 | 12.9 | 0.00 | 0.00 | 0.00 | 41 | 1003.5 |
| 20260505011739 | 10 | 280 | 9.7 | 17.7 | 0.00 | 0.00 | 0.00 | 41 | 1003.7 |
| 20260505011237 | 10 | 289 | 9.7 | 12.9 | 0.00 | 0.00 | 0.00 | 40 | 1003.5 |
| 20260505010732 | 11 | 311 | 6.4 | 14.5 | 0.00 | 0.00 | 0.00 | 40 | 1003.5 |
| 20260505010229 | 11 | 272 | 4.8 | 16.1 | 0.00 | 0.00 | 0.00 | 39 | 1003.4 |
| 20260505005726 | 11 | 271 | 8.0 | 11.3 | 0.00 | 0.00 | 0.00 | 39 | 1003.1 |
| 20260505005223 | 11 | 238 | 8.0 | 12.9 | 0.00 | 0.00 | 0.00 | 38 | 1002.9 |
| 20260505004720 | 11 | 315 | 12.9 | 14.5 | 0.00 | 0.00 | 0.00 | 38 | 1002.8 |
| 20260505004216 | 11 | 231 | 4.8 | 16.1 | 0.00 | 0.00 | 0.00 | 39 | 1003.0 |
| 20260505003713 | 11 | 260 | 4.8 | 12.9 | 0.00 | 0.00 | 0.00 | 39 | 1002.8 |
| 20260505003211 | 11 | 226 | 4.8 | 12.9 | 0.00 | 0.00 | 0.00 | 38 | 1002.8 |
| 20260505002707 | 11 | 325 | 8.0 | 12.9 | 0.00 | 0.00 | 0.00 | 38 | 1002.8 |
| 20260505002205 | 11 | 242 | 1.6 | 9.7 | 0.00 | 0.00 | 0.00 | 40 | 1002.9 |
| 20260505001702 | 11 | 265 | 6.4 | 9.7 | 0.00 | 0.00 | 0.00 | 39 | 1002.6 |
| 20260505001159 | 11 | 237 | 4.8 | 8.0 | 0.00 | 0.00 | 0.00 | 39 | 1002.6 |
| 20260505000656 | 12 | 263 | 9.7 | 12.9 | 0.00 | 0.00 | 0.00 | 39 | 1002.6 |
| 20260505000154 | 12 | 20 | 8.0 | 11.3 | 0.00 | 0.00 | 0.00 | 39 | 1002.3 |
| 20260504235650 | 12 | 267 | 1.6 | 11.3 | 0.00 | 0.00 | 0.00 | 40 | 1002.4 |
| 20260504235147 | 12 | 324 | 9.7 | 11.3 | 0.00 | 0.00 | 0.00 | 40 | 1002.4 |
| 20260504234644 | 12 | 310 | 4.8 | 12.9 | 0.00 | 0.00 | 0.00 | 40 | 1002.3 |
| 20260504234142 | 12 | 308 | 8.0 | 14.5 | 0.00 | 0.00 | 0.00 | 40 | 1002.3 |
| 20260504233637 | 12 | 261 | 4.8 | 14.5 | 0.00 | 0.00 | 0.00 | 39 | 1002.2 |
| 20260504233133 | 12 | 272 | 9.7 | 11.3 | 0.00 | 0.00 | 0.00 | 38 | 1002.1 |
| 20260504232631 | 12 | 242 | 3.2 | 16.1 | 0.00 | 0.00 | 0.00 | 40 | 1002.0 |
| 20260504232128 | 12 | 270 | 8.0 | 11.3 | 0.00 | 0.00 | 0.00 | 40 | 1002.1 |
| 20260504231624 | 12 | 315 | 8.0 | 12.9 | 0.00 | 0.00 | 0.00 | 40 | 1001.9 |
| 20260504231121 | 12 | 252 | 4.8 | 17.7 | 0.00 | 0.00 | 0.00 | 39 | 1002.0 |
| 20260504230616 | 13 | 298 | 11.3 | 14.5 | 0.00 | 0.00 | 0.00 | 39 | 1002.0 |
| 20260504230116 | 13 | 263 | 1.6 | 9.7 | 0.00 | 0.00 | 0.00 | 39 | 1001.7 |
| 20260504225613 | 13 | 295 | 9.7 | 12.9 | 0.00 | 0.00 | 0.00 | 38 | 1001.6 |
| 20260504225109 | 14 | 289 | 8.0 | 14.5 | 0.00 | 0.00 | 0.00 | 38 | 1001.7 |
| 20260504224606 | 13 | 306 | 12.9 | 17.7 | 0.00 | 0.00 | 0.00 | 37 | 1001.6 |
| 20260504224103 | 13 | 288 | 4.8 | 16.1 | 0.00 | 0.00 | 0.00 | 38 | 1001.3 |
| 20260504223600 | 13 | 284 | 8.0 | 14.5 | 0.00 | 0.00 | 0.00 | 38 | 1001.2 |
| 20260504223055 | 13 | 282 | 11.3 | 25.7 | 0.00 | 0.00 | 0.00 | 38 | 1001.1 |
| 20260504222553 | 14 | 319 | 12.9 | 17.7 | 0.00 | 0.00 | 0.00 | 38 | 1001.0 |
| 20260504222050 | 15 | 233 | 8.0 | 12.9 | 0.00 | 0.00 | 0.00 | 36 | 1000.9 |
| 20260504221547 | 15 | 242 | 6.4 | 24.1 | 0.00 | 0.00 | 0.00 | 37 | 1000.7 |
| 20260504221044 | 15 | 295 | 8.0 | 22.5 | 0.00 | 0.00 | 0.00 | 37 | 1000.7 |
| 20260504220540 | 15 | 354 | 6.4 | 12.9 | 0.00 | 0.00 | 0.00 | 36 | 1000.5 |
| 20260504220038 | 14 | 236 | 6.4 | 9.7 | 0.00 | 0.00 | 0.00 | 37 | 1000.5 |
| 20260504215534 | 15 | 284 | 6.4 | 14.5 | 0.00 | 0.00 | 0.00 | 35 | 1000.4 |
| 20260504215032 | 15 | 282 | 9.7 | 16.1 | 0.00 | 0.00 | 0.00 | 36 | 1000.5 |
| 20260504214527 | 15 | 303 | 4.8 | 17.7 | 0.00 | 0.00 | 0.00 | 36 | 1000.4 |
| 20260504214024 | 15 | 259 | 11.3 | 16.1 | 0.00 | 0.00 | 0.00 | 35 | 1000.2 |
| 20260504213521 | 16 | 259 | 4.8 | 20.9 | 0.00 | 0.00 | 0.00 | 35 | 1000.0 |
| 20260504213018 | 15 | 237 | 6.4 | 20.9 | 0.00 | 0.00 | 0.00 | 37 | 999.9 |
| 20260504212514 | 15 | 258 | 8.0 | 16.1 | 0.00 | 0.00 | 0.00 | 37 | 999.9 |
| 20260504212011 | 16 | 267 | 11.3 | 25.7 | 0.00 | 0.00 | 0.00 | 36 | 1000.0 |
| 20260504211508 | 15 | 228 | 6.4 | 16.1 | 0.00 | 0.00 | 0.00 | 36 | 999.8 |
| 20260504211005 | 16 | 312 | 14.5 | 16.1 | 0.00 | 0.00 | 0.00 | 36 | 999.8 |
| 20260504210502 | 16 | 292 | 11.3 | 14.5 | 0.00 | 0.00 | 0.00 | 35 | 999.9 |
| 20260504205958 | 16 | 244 | 11.3 | 29.0 | 0.00 | 0.00 | 0.00 | 35 | 999.8 |
| 20260504205456 | 16 | 259 | 6.4 | 20.9 | 0.00 | 0.00 | 0.00 | 36 | 1000.1 |
| 20260504204954 | 16 | 247 | 8.0 | 12.9 | 0.00 | 0.00 | 0.00 | 36 | 999.8 |
| 20260504204452 | 15 | 268 | 6.4 | 17.7 | 0.00 | 0.00 | 0.00 | 37 | 999.8 |
| 20260504203951 | 16 | 322 | 12.9 | 22.5 | 0.00 | 0.00 | 0.00 | 35 | 999.6 |
| 20260504203449 | 16 | 266 | 9.7 | 11.3 | 0.00 | 0.00 | 0.00 | 35 | 999.5 |
| 20260504202944 | 16 | 269 | 8.0 | 20.9 | 0.00 | 0.00 | 0.00 | 36 | 999.6 |
| 20260504202441 | 16 | 283 | 6.4 | 16.1 | 0.00 | 0.00 | 0.00 | 36 | 999.5 |
| 20260504201938 | 16 | 258 | 6.4 | 17.7 | 0.00 | 0.00 | 0.00 | 36 | 999.5 |
| 20260504201435 | 16 | 258 | 9.7 | 14.5 | 0.00 | 0.00 | 0.00 | 36 | 999.5 |
| 20260504200933 | 17 | 283 | 8.0 | 17.7 | 0.00 | 0.00 | 0.00 | 36 | 999.5 |
| 20260504200429 | 16 | 279 | 6.4 | 17.7 | 0.00 | 0.00 | 0.00 | 34 | 999.5 |
| 20260504195926 | 16 | 265 | 9.7 | 14.5 | 0.00 | 0.00 | 0.00 | 34 | 999.4 |
| 20260504195422 | 16 | 272 | 6.4 | 12.9 | 0.00 | 0.00 | 0.00 | 35 | 999.4 |
| 20260504194919 | 16 | 303 | 4.8 | 9.7 | 0.00 | 0.00 | 0.00 | 35 | 999.0 |
| 20260504194414 | 16 | 259 | 8.0 | 20.9 | 0.00 | 0.00 | 0.00 | 35 | 999.3 |
| 20260504193911 | 16 | 352 | 8.0 | 12.9 | 0.00 | 0.00 | 0.00 | 32 | 999.1 |
| 20260504193408 | 16 | 286 | 9.7 | 14.5 | 0.00 | 0.00 | 0.00 | 33 | 999.1 |
| 20260504192907 | 17 | 279 | 8.0 | 14.5 | 0.00 | 0.00 | 0.00 | 33 | 999.1 |
| 20260504192404 | 17 | 252 | 9.7 | 12.9 | 0.00 | 0.00 | 0.00 | 35 | 999.1 |
| 20260504191902 | 16 | 276 | 11.3 | 14.5 | 0.00 | 0.00 | 0.00 | 33 | 999.0 |
| 20260504191400 | 16 | 267 | 14.5 | 20.9 | 0.00 | 0.00 | 0.00 | 33 | 999.0 |
| 20260504190855 | 16 | 264 | 9.7 | 22.5 | 0.00 | 0.00 | 0.00 | 32 | 999.0 |
| 20260504190351 | 17 | 283 | 9.7 | 20.9 | 0.00 | 0.00 | 0.00 | 31 | 998.9 |
| 20260504185848 | 16 | 348 | 8.0 | 11.3 | 0.00 | 0.00 | 0.00 | 34 | 998.7 |
| 20260504185345 | 16 | 264 | 6.4 | 14.5 | 0.00 | 0.00 | 0.00 | 34 | 998.9 |
| 20260504184841 | 16 | 278 | 9.7 | 22.5 | 0.00 | 0.00 | 0.00 | 32 | 998.8 |
| 20260504184337 | 16 | 240 | 11.3 | 17.7 | 0.00 | 0.00 | 0.00 | 32 | 998.8 |
| 20260504183833 | 17 | 261 | 6.4 | 12.9 | 0.00 | 0.00 | 0.00 | 33 | 998.5 |
| 20260504183331 | 17 | 235 | 9.7 | 14.5 | 0.00 | 0.00 | 0.00 | 32 | 998.3 |
| 20260504182828 | 17 | 247 | 4.8 | 17.7 | 0.00 | 0.00 | 0.00 | 36 | 998.5 |
| 20260504182325 | 17 | 241 | 6.4 | 14.5 | 0.00 | 0.00 | 0.00 | 36 | 998.5 |
| 20260504181822 | 17 | 299 | 6.4 | 12.9 | 0.00 | 0.00 | 0.00 | 38 | 997.9 |
| 20260504181320 | 17 | 228 | 8.0 | 14.5 | 0.00 | 0.00 | 0.00 | 37 | 998.0 |
| 20260504180819 | 17 | 291 | 6.4 | 12.9 | 0.00 | 0.00 | 0.00 | 36 | 997.8 |
| 20260504180317 | 17 | 281 | 11.3 | 17.7 | 0.00 | 0.00 | 0.00 | 36 | 998.0 |
| 20260504175814 | 17 | 326 | 6.4 | 16.1 | 0.00 | 0.00 | 0.00 | 36 | 997.8 |
| 20260504175311 | 17 | 270 | 12.9 | 17.7 | 0.00 | 0.00 | 0.00 | 35 | 997.8 |
| 20260504174809 | 17 | 291 | 4.8 | 11.3 | 0.00 | 0.00 | 0.00 | 35 | 997.8 |
| 20260504174306 | 17 | 192 | 3.2 | 8.0 | 0.00 | 0.00 | 0.00 | 37 | 997.8 |
| 20260504173803 | 17 | 232 | 8.0 | 17.7 | 0.00 | 0.00 | 0.00 | 35 | 997.7 |
| 20260504173300 | 17 | 291 | 8.0 | 12.9 | 0.00 | 0.00 | 0.00 | 34 | 997.6 |
| 20260504172756 | 17 | 259 | 9.7 | 22.5 | 0.00 | 0.00 | 0.00 | 35 | 997.7 |
| 20260504172253 | 17 | 317 | 16.1 | 20.9 | 0.00 | 0.00 | 0.00 | 35 | 997.6 |
| 20260504171749 | 17 | 245 | 6.4 | 11.3 | 0.00 | 0.00 | 0.00 | 36 | 997.5 |
| 20260504171246 | 17 | 217 | 9.7 | 12.9 | 0.00 | 0.00 | 0.00 | 36 | 997.5 |
| 20260504170743 | 17 | 252 | 6.4 | 14.5 | 0.00 | 0.00 | 0.00 | 37 | 997.4 |
| 20260504170240 | 17 | 263 | 9.7 | 11.3 | 0.00 | 0.00 | 0.00 | 35 | 997.6 |
| 20260504160159 | 17 | 240 | 9.7 | 14.5 | 0.00 | 0.00 | 0.00 | 35 | 997.7 |
| 20260504151126 | 16 | 310 | 14.5 | 22.5 | 0.00 | 0.00 | 0.00 | 35 | 997.5 |
| 20260504150624 | 15 | 285 | 9.7 | 12.9 | 0.00 | 0.00 | 0.00 | 36 | 997.3 |
| 20260504150121 | 16 | 271 | 3.2 | 12.9 | 0.00 | 0.00 | 0.00 | 38 | 997.3 |
| 20260504141049 | 17 | 252 | 8.0 | 12.9 | 0.00 | 0.00 | 0.00 | 45 | 996.9 |
| 20260504140546 | 17 | 238 | 6.4 | 17.7 | 0.00 | 0.00 | 0.00 | 44 | 996.8 |